Погода в Уилмингтоне

США     34°14′11″N   77°55′40″W
темп.,
°C
ветер,
м/с
пор.,
м/с
влажн.,
%
обл.,
%
осадки,
мм/ч
давл.,
гПа
погр.,
м
31 июля, сб
сб3123:00+26ююз39921 0.5 1013233
02:00+25юз39930 1.8 1013207
05:00+25юз27942 0.1 1013168
08:00+26з23865 0.1 1014157
11:00+33зюз125398 0.1 10141164
14:00+36зсз2338100 0.1 10122596
17:00+34зюз354595 0.0 10111354
20:00+29юз3869100 0.0 1013309
1 августа, вс
вс123:00+28ююз267387 0.0 1013218
02:00+26юз288877 1.4 1012215
05:00+26юз278450 0.3 1012231
08:00+28ююз277730 0.3 1012282
11:00+34юз474853 0.1 10121451
14:00+36юз474497 0.1 10102379
17:00+35юз7114715 0.0 10081911
20:00+29ююз4117362 0.0 1010426
2 августа, пн
пн223:00+26зюз269099 2.0 1012127
02:00+23ссз2586100 2.3 1011102
05:00+22зсз2695100 1.5 1012145
08:00+24сз128765 1.9 1014148
11:00+27ссз117281 1.8 1015510
14:00+33юв024940 2.3 10141394
17:00+26ююз4785100 3.8 1013340
20:00+24ююз1294100 8.1 101475
3 августа, вт
вт323:00+24ююв2291100 1.5 101452
02:00+23с2398100 7.8 1014110
05:00+23в2397100 0.1 101388
08:00+22ююз2696100 5.3 1014221
11:00+22юз3895100 2.8 1015441
14:00+22з1498100 11.0 1015250
17:00+22с2598100 4.4 1014297
20:00+21ссв2498100 6.0 1015177
4 августа, ср
ср423:00+20с3598100 1.6 1015234
02:00+19ссв2598100 1.6 1015211
05:00+19ссз2398100 0.1 1016167
08:00+20с2495100 0.3 1017228
11:00+23св2284100 0.1 1019505
14:00+23в1389100 1.4 1019432
17:00+25ю3784100 0.6 1018735
20:00+24ю2589100 0.9 1018192